Location: General Nathan Twining Observatory
(34.5931°N, 106.8201°W)
Time: 15:07:36
(UTC-07:00)

Daily predictions for brighter satellites

Satellite Brightness Start Highest point End
(mag) Time Altitude Azimuth Time Altitude Azimuth Time Altitude Azimuth
Cosmos 1515 Rocket 4.0 17:44:59 10° N 17:49:13 41° E 17:53:24 10° SSE
SL-14 R/B 4.2 17:46:42 10° SSE 17:50:02 28° E 17:53:24 10° NNE
OAO 1 Rocket 4.5 17:45:42 10° W 17:51:01 89° S 17:56:21 10° E
Cosmos 1674 3.2 17:47:29 10° SSW 17:51:15 65° W 17:55:04 10° N
SKYMED 2 3.8 17:48:38 10° NNE 17:52:51 48° E 17:57:01 10° S
USA 215 4.0 17:49:01 10° E 17:54:42 33° NNE 18:00:25 10° NNW
Cosmos 1484 Rocket 3.0 17:51:54 10° SSE 17:55:39 48° ENE 17:59:28 10° N
Cosmos 1844 4.0 17:51:20 10° N 17:56:54 47° ENE 18:02:27 10° SE
SPOT 3 Rocket 3.7 17:52:11 10° S 17:57:19 80° WSW 18:02:30 10° NNW
Cosmos 1151 Rocket 3.6 17:54:40 10° NNE 17:58:33 33° E 18:02:27 10° SE
MSX 3.9 17:54:14 10° SSE 17:59:57 89° ENE 18:05:42 10° NNW
Haruka 3.6 17:56:43 10° WSW 18:00:11 53° SSE 18:08:43 10° E
Cosmos 1500 Rocket 3.5 17:55:57 10° S 18:00:13 70° E 18:04:33 10° NNE
Thor Agena Rocket 4.1 17:56:01 10° N 18:01:12 63° WNW 18:06:17 10° SSW
SEDSat Delta rocket 4.3 17:57:37 10° W 18:03:14 51° SSW 18:08:08 10° ESE
COSMOS 2428 3.9 17:58:43 10° SW 18:04:09 44° WNW 18:09:37 10° N
Cosmos 1125 Rocket 4.0 18:01:14 10° N 18:06:03 37° ENE 18:10:50 10° SE
Cosmos 990 Rocket 4.4 18:01:37 10° NNW 18:06:50 70° WSW 18:12:03 10° S
Cosmos 1634 Rocket 4.0 18:00:45 10° N 18:06:53 64° E 18:12:58 10° SSE
Cosmos 2237 Rocket 2.3 18:01:55 10° S 18:07:25 60° ESE 18:12:58 10° NNE
ALOS 3.9 18:06:30 10° E 18:08:38 13° ENE 18:10:46 10° NE
Cosmos 44 3.5 18:04:08 10° SSW 18:09:24 68° ESE 18:14:30 10° NE
Cosmos 1300 3.1 18:07:34 10° N 18:11:13 41° E 18:14:50 10° SSE
SL-16 R/B 3.2 18:07:44 10° SSE 18:12:16 25° ESE 18:16:18 12° NE
Cosmos 1726 2.4 18:09:18 10° N 18:12:55 44° E 18:16:32 10° SSE
IDEFIX/ARIANE 42P 4.1 18:08:45 10° SSW 18:13:37 41° W 18:18:34 10° NNW
Hubble Space Telescope 2.8 18:10:35 10° WSW 18:13:57 24° SSW 18:17:21 10° SE
BREEZE-M DEB (TANK) 2.6 18:13:47 10° SSW 18:15:09 22° SE 18:15:43 19° ESE
CZ-4 R/B 3.9 18:14:14 10° SSW 18:17:28 25° W 18:20:44 10° NW
Cosmos 371 Rocket 3.6 18:13:00 10° SSW 18:17:46 69° WNW 18:22:34 10° NNE
OTV 4 0.7 18:16:11 10° WNW 18:19:05 48° N 18:20:41 22° ENE
Lacrosse 5 rocket 3.1 18:17:15 10° N 18:19:11 13° NE 18:19:23 13° NE
FREGAT/IRIS 4.1 18:18:27 10° ESE 18:25:10 - N 18:20:10 19° E
NOSS 0 Rocket 4.1 18:18:15 10° SSW 18:24:28 81° WNW 18:30:43 10° NNE
Resurs 01 Rocket 3.4 18:31:56 15° NE 18:31:56 15° NE 18:33:15 10° NNE
OAO 3 Rocket 4.1 18:27:00 10° W 18:31:42 47° SSW 18:36:18 10° SE
Abrixas rocket 4.3 18:30:00 10° WNW 18:32:54 28° SW 18:35:49 10° SSE
Meteor 1-11 4.2 18:28:44 10° S 18:34:22 80° E 18:40:06 10° N
Aureole 2 Rocket 2.4 18:32:09 10° S 18:35:38 69° ESE 18:38:34 16° NNE
Meteor 1-28 Rocket 3.4 18:32:24 10° N 18:36:05 69° WNW 18:39:46 10° SSW
CENTAUR R/B 4.3 18:32:23 10° W 18:37:24 26° NW 18:42:56 10° N
COSMO-SKYMED 1 3.8 18:36:42 10° N 18:40:48 43° WNW 18:44:54 10° SW
Centaur AC-119 4.0 18:40:07 10° SSW 18:41:55 17° SSE 18:42:54 15° SE
Cosmos 1844 Rocket 3.7 18:37:41 10° NNW 18:43:07 49° WSW 18:48:30 10° S
Cosmos 1707 Rocket 4.1 18:40:34 10° NNE 18:44:30 33° E 18:48:25 10° SE
Cosmos 1461 3.2 18:41:54 10° S 18:45:57 44° ESE 18:47:02 36° ENE
SJ-6B 2.8 18:43:09 10° SSE 18:47:06 60° ENE 18:51:09 10° N
Cosmos 1666 Rocket 3.7 18:47:10 10° SSE 18:51:18 46° E 18:52:39 34° NE
Cosmos 2058 3.6 18:51:15 10° SSW 18:55:16 53° W 18:59:18 10° N
H-2A ROCKET BODY 3.5 18:31:26 10° WSW 18:58:57 59° S 19:02:28 27° ESE
Cosmos 2279 Rocket 4.0 18:52:53 10° N 18:59:08 83° W 19:05:21 10° S
Cosmos 1703 3.2 18:58:31 10° S 19:02:25 81° W 19:04:47 23° N
Cosmos 304 Rocket 3.8 18:58:47 10° SSW 19:03:35 83° WNW 19:06:43 22° NNE
FENGYUN 3A 3.7 18:59:24 10° SSE 19:04:33 51° ENE 19:09:45 10° N
Cosmos 2333 Rocket 3.9 19:02:42 10° WSW 19:07:38 30° WNW 19:12:36 10° N
Cosmos 773 Rocket 4.2 19:06:00 10° S 19:10:33 46° ESE 19:10:33 46° ESE
Atlas Centaur 2 4.0 19:10:56 10° WSW 19:13:36 15° SSW 19:16:01 10° S
Nadezhda 4 Rocket 3.9 19:09:27 10° S 19:15:40 83° E 19:22:00 10° N
Cosmos 1340 Rocket 4.3 19:13:53 10° SW 19:17:31 35° WNW 19:21:05 10° NNW
Cosmos 372 Rocket 4.3 19:12:38 10° NNW 19:17:40 63° WSW 19:22:40 10° S
Cosmos 1356 Rocket 3.4 19:15:23 10° SSW 19:19:22 72° W 19:19:50 63° NNW
Cosmos 1626 3.0 19:23:29 10° SSW 19:27:05 47° W 19:27:22 46° WNW
Cosmos 2278 Rocket 3.2 19:24:24 10° NW 19:29:48 46° WSW 19:35:11 10° S
Cosmos 1092 Rocket 3.9 19:26:44 10° S 19:33:02 82° E 19:36:36 28° N
OAO 1 Rocket 4.4 19:31:28 10° W 19:36:34 82° W 19:36:34 82° W
USA 215 3.4 19:32:58 23° SSE 19:37:20 70° SW 19:43:53 10° NW
Aureole 1 Rocket 3.7 19:38:19 10° SSW 19:42:13 65° SSW 19:42:13 65° SSW
ALOS 2.9 19:41:01 10° S 19:45:33 54° W 19:50:09 10° NNW
Spot 2 Rocket 4.1 19:47:42 10° S 19:52:38 54° W 19:57:34 10° NNW
Milstar 3 4.1 19:48:48 10° W 19:54:42 33° SSW 19:57:25 27° SSE
SL-16 R/B 3.5 19:50:56 10° SW 19:56:07 37° WNW 19:58:16 27° NNW
Lacrosse 5 rocket 4.1 19:54:49 10° NW 19:55:10 12° NW 19:55:10 12° NW
Resurs 01 Rocket 4.2 20:09:29 14° NW 20:09:29 14° NW 20:10:15 10° NW
USA 229 DEB 4.1 20:13:13 10° SW 20:19:18 59° W 20:19:18 59° W
USA 229 4.1 20:13:19 10° SW 20:19:21 59° W 20:19:21 59° W
